Location: *
(47.8307°S, 178.3954°E)
Time: 08:39:38
(UTC+00:00)

Cosmos 407 Rocket - Pass Details

Date: 12 August 2024
Orbit: 740 x 784 km, 74.1° (Epoch: 18 September)

Event Time Altitude Azimuth Distance (km) Brightness Sun altitude
Rises 18:39:39 0° 204° (SSW) 3,257 6.4 -6.2°
Reaches altitude 10° 18:42:03 10° 205° (SSW) 2,318 5.6 -5.8°
Maximum altitude 18:47:18 79° 290° (WNW) 778 3.5 -4.9°
Drops below altitude 10° 18:52:27 10° 16° (NNE) 2,266 6.4 -4.1°
Sets 18:54:46 0° 17° (NNE) 3,179 7.2 -3.7°
